Weather History for KMIC - June, 2014

Change the Weather History Date:

Sunday, June 8, 2014

  Actual Average Record
Temperature  
Mean Temperature 59 °F -  
Max Temperature 73 °F 72 °F 89 °F (2012)
Min Temperature 46 °F 52 °F 42 °F (1998)
Degree Days  
Heating Degree Days 6    
Growing Degree Days 9 (Base 50)    
Moisture  
Dew Point 44 °F    
Average Humidity 69    
Maximum Humidity 97    
Minimum Humidity 27    
Precipitation  
Precipitation 0.00 in - - ()
Sea Level Pressure  
Sea Level Pressure 30.08 in    
Wind  
Wind Speed 1 mph (NE)    
Max Wind Speed 7 mph    
Max Gust Speed -    
Visibility 6 miles    
Events Fog    
Averages and records for this station are not official NWS values.
T = Trace of Precipitation, MM = Missing Value Source: NWS Daily Summary

Daily Weather History Graph

Daily Weather History Graph

Search for Another Location

Airport or City:

Trip Planner

Search our weather history database for the weather conditions in past years. The results will help you decide how hot, cold, wet, or windy it might be!

Date:

Astronomy

Jun. 08, 2014 Rise Set
Actual Time 5:26 AM CDT 8:58 PM CDT
Civil Twilight 4:49 AM CDT 9:35 PM CDT
Nautical Twilight 4:00 AM CDT 10:24 PM CDT
Astronomical Twilight 2:57 AM CDT 11:28 PM CDT
Moon 4:06 PM CDT (6/8) 2:33 AM CDT (6/8)
Length of Visible Light 16h 45m
Length of Day
15h 31m
Waxing Gibbous, 77% of the Moon is Illuminated
Jun 8
Waxing Gibbous
Jun 12
Full
Jun 19
Last Quarter
Jun 27
New
Jul 5
First Quarter

Hourly Weather History & Observations

Time (CDT) Temp. Dew Point Humidity Pressure Visibility Wind Dir Wind Speed Gust Speed Precip Events Conditions
12:24 AM 52.0 °F 48.9 °F 89% 30.06 in 1.8 mi Calm Calm - N/A   Clear
12:53 AM 51.1 °F 46.9 °F 86% 30.08 in 1.5 mi Calm Calm - N/A   Clear
12:58 AM 51.1 °F 48.0 °F 89% 30.07 in 3.0 mi Calm Calm - N/A   Clear
1:53 AM 50.0 °F 46.9 °F 89% 30.07 in 4.0 mi Calm Calm - N/A   Clear
2:03 AM 50.0 °F 46.9 °F 89% 30.06 in 1.8 mi Calm Calm - N/A   Clear
2:24 AM 48.9 °F 46.0 °F 90% 30.06 in 1.0 mi Calm Calm - N/A   Mist
2:33 AM 50.0 °F 46.0 °F 86% 30.07 in 3.0 mi Calm Calm - N/A   Mostly Cloudy
2:44 AM 48.9 °F 46.0 °F 90% 30.07 in 6.0 mi Calm Calm - N/A   Scattered Clouds
2:53 AM 48.0 °F 45.0 °F 89% 30.08 in 7.0 mi Calm Calm - N/A   Partly Cloudy
3:53 AM 48.0 °F 45.0 °F 89% 30.09 in 8.0 mi Calm Calm - N/A   Clear
4:53 AM 48.0 °F 45.0 °F 89% 30.10 in 4.0 mi Calm Calm - N/A   Clear
5:02 AM 46.9 °F 45.0 °F 93% 30.08 in 1.5 mi Calm Calm - N/A   Clear
5:11 AM 46.0 °F 44.1 °F 93% 30.09 in 1.8 mi Calm Calm - N/A   Partly Cloudy
5:20 AM 46.0 °F 44.1 °F 93% 30.09 in 0.8 mi Calm Calm - N/A   Mist
5:53 AM 46.0 °F 45.0 °F 96% 30.09 in 0.2 mi Calm Calm - N/A Fog Fog
6:53 AM 48.9 °F 48.0 °F 97% 30.10 in 0.5 mi Calm Calm - N/A Fog Fog
7:04 AM 50.0 °F 48.9 °F 96% 30.09 in 2.0 mi Calm Calm - N/A   Mostly Cloudy
7:13 AM 51.1 °F 50.0 °F 96% 30.10 in 8.0 mi Calm Calm - N/A   Clear
7:53 AM 54.0 °F 51.1 °F 90% 30.10 in 10.0 mi NNE 4.6 mph - N/A   Clear
8:53 AM 61.0 °F 48.9 °F 64% 30.12 in 10.0 mi Calm Calm - N/A   Clear
9:53 AM 66.0 °F 46.9 °F 50% 30.12 in 10.0 mi NE 6.9 mph - N/A   Clear
10:53 AM 68.0 °F 42.1 °F 39% 30.12 in 10.0 mi East 6.9 mph - N/A   Clear
11:53 AM 71.1 °F 39.0 °F 31% 30.12 in 10.0 mi Variable 5.8 mph - N/A   Partly Cloudy
12:53 PM 71.1 °F 37.0 °F 29% 30.11 in 10.0 mi Variable 4.6 mph - N/A   Clear
1:53 PM 72.0 °F 37.0 °F 28% 30.10 in 10.0 mi Calm Calm - N/A   Clear
3:53 PM 72.0 °F 36.0 °F 27% 30.07 in 10.0 mi NE 4.6 mph - N/A   Clear
4:53 PM 71.1 °F 37.9 °F 30% 30.06 in 10.0 mi Variable 4.6 mph - N/A   Clear
5:53 PM 70.0 °F 37.9 °F 31% 30.05 in 10.0 mi NNE 6.9 mph - N/A   Clear
6:53 PM 70.0 °F 39.0 °F 32% 30.05 in 10.0 mi NE 5.8 mph - N/A   Clear
7:53 PM 68.0 °F 39.9 °F 36% 30.04 in 10.0 mi ENE 3.5 mph - N/A   Clear
8:53 PM 64.0 °F 43.0 °F 46% 30.04 in 10.0 mi Calm Calm - N/A   Clear
9:53 PM 61.0 °F 44.1 °F 54% 30.05 in 10.0 mi Calm Calm - N/A   Clear
10:53 PM 59.0 °F 45.0 °F 60% 30.06 in 10.0 mi Calm Calm - N/A   Clear
11:53 PM 59.0 °F 46.9 °F 64% 30.05 in 10.0 mi Calm Calm - N/A   Clear